Regional Weather Roundup
Issued by NWS Charleston, SC

Current Version | Previous Version | Graphics & Text | Print | Product List | Glossary On
Versions: 1 2 3 4 5 6 7 8 9 10 11 12 13 14 15 16 17 18 19 20 21 22 23 24 25 26 27 28 29 30 31 32 33 34 35 36 37 38 39 40 41 42 43 44 45 46 47 48 49 50
824
ASUS42 KCHS 230712
RWRCHS

REGIONAL WEATHER ROUNDUP
NATIONAL WEATHER SERVICE CHARLESTON SC
300 AM EDT THU MAR 23 2017

NOTE: "FAIR" INDICATES FEW OR NO CLOUDS BELOW 12,000 FEET WITH NO
SIGNIFICANT WEATHER AND/OR OBSTRUCTIONS TO VISIBILITY.

NOT ALL STATIONS ARE QUALITY CONTROLLED. USE DATA WITH CAUTION...
ESPECIALLY DEWPOINT OBSERVATIONS.

SCZ027-030-031-034>040-042>050-230800-
...SOUTHEAST SOUTH CAROLINA...

CITY           SKY/WX    TMP DP  RH WIND       PRES   REMARKS
N CHARLESTON   PTCLDY    52  37  56 E13       30.36R
WATERFRONT PRK   N/A     56  44  64 NE17      30.33R
JOHNS ISLAND   FAIR      55  41  58 NE15G23   30.35R
PINOPOLIS        N/A     52  43  71 E13       30.29R
MONCKS CORNER  FAIR      50  37  62 NE8       30.37S
SUMMERVILLE    FAIR      52  39  62 NE7       30.37R
BEAUFORT MCAS  PTCLDY    57  49  74 E13G20    30.32R
BEAUFORT ARPT  FAIR      57  46  67 NE16G26   30.32R
HILTON HEAD IS CLEAR    N/A N/A N/A NE13G24   30.32R
WALTERBORO     SUNNY     50  45  81 NE13G20   30.36R
ALLENDALE      FAIR      52  41  66 E5        30.33R

...SOUTHERN MIDLANDS AND PEE DEE...

CITY           SKY/WX    TMP DP  RH WIND       PRES   REMARKS
GEORGETOWN     FAIR      50  36  57 NE12      30.40R
KINGSTREE      FAIR      46  36  66 NE3       30.40S
ORANGEBURG     CLEAR     52  42  69 E9G17     30.36R
BARNWELL       FAIR      52  39  62 NE8       30.35R
AIKEN          FAIR      45  30  57 NE7       30.38R
MANNING        FAIR      48  36  61 E3        30.39S
COLUMBIA       PTCLDY    51  30  44 E8        30.37R
SUMTER         CLEAR     48  32  54 E7        30.36S
FLORENCE       CLEAR     43  31  62 E8        30.42R
MYRTLE BEACH   CLEAR     45  31  58 NE7       30.42S
N MYRTLE BEACH CLEAR     43  31  62 NE8       30.40S

$$

GAZ063-065-086>088-099>101-113>116-118-119-134>141-150-230800-
...SOUTHEAST GEORGIA...

CITY           SKY/WX    TMP DP  RH WIND       PRES   REMARKS
SAVANNAH ARPT  CLOUDY    59  50  72 E12       30.30R
HUNTER AAF     CLOUDY    60  53  80 E9        30.27R
FORT STEWART   MOCLDY    58  52  78 NE9       30.26S
STATESBORO     MOCLDY    56  42  59 NE3       30.31S
SYLVANIA       CLOUDY   N/A N/A N/A E5        30.33R
CLAXTON        CLOUDY   N/A N/A N/A NE7       30.30S

...CSRA...CENTRAL AND FAR SOUTHEAST GEORGIA...

CITY           SKY/WX    TMP DP  RH WIND       PRES   REMARKS
THOMSON        MOCLDY    48  35  59 MISG      30.38S
AUGUSTA-BUSH   PTCLDY    52  31  44 E7        30.34R
AUGUSTA-DANIEL MOCLDY    54  26  34 E8        30.34R
SWAINSBORO     CLOUDY    59  32  36 E7        30.32S
VIDALIA        CLOUDY    59  50  72 E10       30.30S
EASTMAN        CLOUDY    62  41  45 E8G16     30.32R
HAZLEHURST     FAIR      60  54  82 E7        30.28R
ALMA           CLEAR     59  54  83 NE3       30.27R
WAYCROSS       PTCLDY    62  60  94 E7        30.26S
JESUP          FAIR      59  52  77 NE3       30.28R
BAXLEY         FAIR      59  57  94 NE6       30.28R
BRUNSWICK      CLOUDY    63  59  88 NE9       30.27R
SAINT SIMONS   MOCLDY    62  56  80 NE10      30.25R

$$

SCZ027-028-034-036>038-045-046-048>050-GAZ119-141-230800-
...LAKE AND SUPPLEMENTAL COASTAL OBSERVATIONS...

STATION/POSITION TIME  TEMP    WIND        PRES    WAVE   SWELL
                       AIR SEA DIR/SP/G            HT/PER HT/PER/DIR
                 (UTC) (F)     (DEG/KT/KT) (MB)    (FT/S) (FT/S/D)
WINYAH BAY       0545   53      60/ 16     1028.0
LAKE MURRAY      0620   52      70/  7/ 15 1027.4
ACE BASIN NERRS  0545   57      50/  6     1026.0
FORT PULASKI     0648      61   70/ 23/ 29 1026.1R
SAPELO ISLAND    0600   61      50/ 11     1024.0

$$

ANZ835-935-AMZ111-154-330-350-352-354-370-450-454-472-230800-
...C-MAN AND BUOY OBSERVATIONS...

STATION/POSITION TIME  TEMP    WIND        PRES    WAVE   SWELL
                       AIR SEA DIR/SP/G            HT/PER HT/PER/DIR
                 (UTC) (F)     (DEG/KT/KT) (MB)    (FT/S) (FT/S/D)
BUOY 41004       0550   61 66   40/ 27/ 31 1025.2    7/ 6   3/ 70/10
BUOY 41008       0550   64 62   60/ 17/ 21 1023.7    5/ 7   2/ 90/11
FOLLY BEACH CMAN 0600   58      50/ 25/ 30 1027.6R
CAPERS NEARSHORE 0608   57      60/ 23/ 31 1027.2R
FRIPP NEARSHORE  0608   60 61   60/ 23/ 29 1025.8R


STATION/POSITION TIME  TEMP    WIND        PRES    WAVE   SWELL
                       AIR SEA DIR/SP/G            HT/PER HT/PER/DIR
                 (UTC) (F)     (DEG/KT/KT) (MB)    (FT/S) (FT/S/D)
5E ST. MARYS GA  0630      63                N/A     4/ 6
FRYING PAN BUOY  0650   55 64   30/ 21/ 27 1028.5S   8/ 8   2/ 70/11
BUOY 41025       0650   46 75   20/ 23/ 27 1029.9F  10/11   5/ 70/11
CAPE LOOKOUT NC  0600   45      30/ 12/ 16 1030.2R
BUOY 41002       0550   61 72   20/ 25/ 31 1023.9    9/ 9   7/ 30/ 9
BUOY 41010       NOT AVBL
ST AUGUSTINE FL  0700   66 66   10/ 11/ 12 1023.0R


$$




USA.gov is the U.S. government's official web portal to all federal, state and local government web resources and services.